contact:dominique.lefevre@mio.osupytheas.fr, maurice.libes@osupytheas.fr, didier.mallarino@osupytheas.fr
Project:EMSO http://www.emso-fr.org/EMSO-France
Depth: 2436.0 m
Title:EMSO Ligure Ouest : Data MII capteur MICROCAT
DateTime_Computer,Latitude,Longitude,Temperature,Conductivity,Pressure,DateTime_Instrument
DateTime_Computer,Latitude,Longitude,degC,S m-1,dbar,DateTime_Instrument
2020-11-11T00:01:30Z,42.805,6.029,13.2981,4.59991,2470.194,2020-11-11T02:02:26Z
2020-11-11T00:04:33Z,42.805,6.029,13.2984,4.59985,2470.143,2020-11-11T02:05:29Z
2020-11-11T00:07:36Z,42.805,6.029,13.2983,4.59985,2470.133,2020-11-11T02:08:32Z
2020-11-11T00:10:39Z,42.805,6.029,13.2978,4.59984,2470.147,2020-11-11T02:11:36Z
2020-11-11T00:13:42Z,42.805,6.029,13.2985,4.59985,2470.156,2020-11-11T02:14:39Z
2020-11-11T00:16:46Z,42.805,6.029,13.2981,4.59985,2470.133,2020-11-11T02:17:42Z
2020-11-11T00:19:49Z,42.805,6.029,13.2982,4.59986,2470.133,2020-11-11T02:20:45Z
2020-11-11T00:22:52Z,42.805,6.029,13.2982,4.59985,2470.156,2020-11-11T02:23:48Z
2020-11-11T00:25:55Z,42.805,6.029,13.2983,4.59986,2470.156,2020-11-11T02:26:51Z
2020-11-11T00:28:58Z,42.805,6.029,13.2983,4.59986,2470.156,2020-11-11T02:29:54Z
2020-11-11T00:32:01Z,42.805,6.029,13.2982,4.59985,2470.171,2020-11-11T02:32:57Z
2020-11-11T00:35:04Z,42.805,6.029,13.2983,4.59986,2470.133,2020-11-11T02:36:01Z
2020-11-11T00:38:07Z,42.805,6.029,13.2979,4.59986,2470.156,2020-11-11T02:39:04Z
2020-11-11T00:41:11Z,42.805,6.029,13.2983,4.59985,2470.133,2020-11-11T02:42:07Z
2020-11-11T00:44:14Z,42.805,6.029,13.2982,4.59985,2470.156,2020-11-11T02:45:10Z
2020-11-11T00:47:17Z,42.805,6.029,13.2983,4.59985,2470.133,2020-11-11T02:48:13Z
2020-11-11T00:50:20Z,42.805,6.029,13.2983,4.59985,2470.156,2020-11-11T02:51:16Z
2020-11-11T00:53:23Z,42.805,6.029,13.2984,4.59985,2470.156,2020-11-11T02:54:19Z
2020-11-11T00:56:26Z,42.805,6.029,13.2983,4.59986,2470.156,2020-11-11T02:57:22Z
2020-11-11T00:59:29Z,42.805,6.029,13.2982,4.59985,2470.171,2020-11-11T03:00:25Z
2020-11-11T01:02:32Z,42.805,6.029,13.2985,4.59986,2470.171,2020-11-11T03:03:29Z
2020-11-11T01:05:36Z,42.805,6.029,13.2984,4.59984,2470.18,2020-11-11T03:06:32Z
2020-11-11T01:08:39Z,42.805,6.029,13.2980,4.59986,2470.133,2020-11-11T03:09:35Z
2020-11-11T01:11:42Z,42.805,6.029,13.2981,4.59985,2470.194,2020-11-11T03:12:38Z
2020-11-11T01:14:45Z,42.805,6.029,13.2983,4.59985,2470.156,2020-11-11T03:15:41Z
2020-11-11T01:17:48Z,42.805,6.029,13.2986,4.59986,2470.156,2020-11-11T03:18:44Z
2020-11-11T01:20:51Z,42.805,6.029,13.2985,4.59985,2470.171,2020-11-11T03:21:47Z
2020-11-11T01:23:54Z,42.805,6.029,13.2982,4.59986,2470.217,2020-11-11T03:24:50Z
2020-11-11T01:26:57Z,42.805,6.029,13.2976,4.59985,2470.18,2020-11-11T03:27:54Z
2020-11-11T01:30:01Z,42.805,6.029,13.2983,4.59986,2470.171,2020-11-11T03:30:57Z
2020-11-11T01:33:04Z,42.805,6.029,13.2983,4.59986,2470.217,2020-11-11T03:34:00Z
2020-11-11T01:36:07Z,42.805,6.029,13.2981,4.59986,2470.203,2020-11-11T03:37:03Z
2020-11-11T01:39:10Z,42.805,6.029,13.2983,4.59986,2470.203,2020-11-11T03:40:06Z
2020-11-11T01:42:13Z,42.805,6.029,13.2983,4.59987,2470.194,2020-11-11T03:43:09Z
2020-11-11T01:45:16Z,42.805,6.029,13.2985,4.59986,2470.227,2020-11-11T03:46:12Z
2020-11-11T01:48:19Z,42.805,6.029,13.2979,4.59986,2470.166,2020-11-11T03:49:15Z
2020-11-11T01:51:22Z,42.805,6.029,13.2981,4.59986,2470.203,2020-11-11T03:52:19Z
2020-11-11T01:54:25Z,42.805,6.029,13.2983,4.59986,2470.203,2020-11-11T03:55:22Z
2020-11-11T01:57:29Z,42.805,6.029,13.2981,4.59986,2470.18,2020-11-11T03:58:25Z
2020-11-11T02:00:32Z,42.805,6.029,13.2983,4.59986,2470.18,2020-11-11T04:01:28Z
2020-11-11T02:03:35Z,42.805,6.029,13.2983,4.59985,2470.18,2020-11-11T04:04:31Z
2020-11-11T02:06:38Z,42.805,6.029,13.2986,4.59986,2470.194,2020-11-11T04:07:34Z
2020-11-11T02:09:41Z,42.805,6.029,13.2982,4.59986,2470.217,2020-11-11T04:10:37Z
2020-11-11T02:12:44Z,42.805,6.029,13.2982,4.59986,2470.217,2020-11-11T04:13:40Z
2020-11-11T02:15:47Z,42.805,6.029,13.2986,4.59986,2470.203,2020-11-11T04:16:44Z
2020-11-11T02:18:50Z,42.805,6.029,13.2988,4.59988,2470.203,2020-11-11T04:19:47Z
2020-11-11T02:21:54Z,42.805,6.029,13.2981,4.59992,2470.203,2020-11-11T04:22:50Z
2020-11-11T02:24:57Z,42.805,6.029,13.2981,4.59986,2470.24,2020-11-11T04:25:53Z
2020-11-11T02:28:00Z,42.805,6.029,13.2983,4.59985,2470.24,2020-11-11T04:28:56Z
2020-11-11T02:31:03Z,42.805,6.029,13.2984,4.59986,2470.18,2020-11-11T04:31:59Z
2020-11-11T02:34:06Z,42.805,6.029,13.2985,4.59986,2470.203,2020-11-11T04:35:02Z
2020-11-11T02:37:09Z,42.805,6.029,13.2984,4.59986,2470.217,2020-11-11T04:38:05Z
2020-11-11T02:40:12Z,42.805,6.029,13.2983,4.59989,2470.217,2020-11-11T04:41:08Z
2020-11-11T02:43:15Z,42.805,6.029,13.2983,4.59986,2470.25,2020-11-11T04:44:12Z
2020-11-11T02:46:19Z,42.805,6.029,13.2987,4.59986,2470.203,2020-11-11T04:47:15Z
2020-11-11T02:49:22Z,42.805,6.029,13.2984,4.59988,2470.227,2020-11-11T04:50:18Z
2020-11-11T02:52:25Z,42.805,6.029,13.2984,4.59986,2470.203,2020-11-11T04:53:21Z
2020-11-11T02:55:28Z,42.805,6.029,13.2985,4.59987,2470.227,2020-11-11T04:56:24Z
2020-11-11T02:58:31Z,42.805,6.029,13.2980,4.59986,2470.203,2020-11-11T04:59:27Z
2020-11-11T03:01:34Z,42.805,6.029,13.2983,4.59986,2470.227,2020-11-11T05:02:30Z
2020-11-11T03:04:37Z,42.805,6.029,13.2982,4.59990,2470.203,2020-11-11T05:05:33Z
2020-11-11T03:07:40Z,42.805,6.029,13.2982,4.59986,2470.227,2020-11-11T05:08:37Z
2020-11-11T03:10:44Z,42.805,6.029,13.2982,4.59986,2470.24,2020-11-11T05:11:40Z
2020-11-11T03:13:47Z,42.805,6.029,13.2982,4.59987,2470.24,2020-11-11T05:14:43Z
2020-11-11T03:16:50Z,42.805,6.029,13.2985,4.59986,2470.227,2020-11-11T05:17:46Z
2020-11-11T03:19:53Z,42.805,6.029,13.2982,4.59988,2470.227,2020-11-11T05:20:49Z
2020-11-11T03:22:56Z,42.805,6.029,13.2986,4.59986,2470.203,2020-11-11T05:23:52Z
2020-11-11T03:25:59Z,42.805,6.029,13.2982,4.59991,2470.273,2020-11-11T05:26:55Z
2020-11-11T03:29:02Z,42.805,6.029,13.2981,4.59986,2470.227,2020-11-11T05:29:58Z
2020-11-11T03:32:05Z,42.805,6.029,13.2986,4.59986,2470.24,2020-11-11T05:33:02Z
2020-11-11T03:35:08Z,42.805,6.029,13.2983,4.59986,2470.217,2020-11-11T05:36:05Z
2020-11-11T03:38:12Z,42.805,6.029,13.2982,4.59986,2470.25,2020-11-11T05:39:08Z
2020-11-11T03:41:15Z,42.805,6.029,13.2984,4.59986,2470.217,2020-11-11T05:42:11Z
2020-11-11T03:44:18Z,42.805,6.029,13.2982,4.59987,2470.194,2020-11-11T05:45:14Z
2020-11-11T03:47:21Z,42.805,6.029,13.2982,4.59986,2470.24,2020-11-11T05:48:17Z
2020-11-11T03:50:24Z,42.805,6.029,13.2983,4.59987,2470.24,2020-11-11T05:51:20Z
2020-11-11T03:53:27Z,42.805,6.029,13.2984,4.59987,2470.25,2020-11-11T05:54:23Z
2020-11-11T03:56:30Z,42.805,6.029,13.2985,4.59986,2470.227,2020-11-11T05:57:27Z
2020-11-11T03:59:33Z,42.805,6.029,13.2987,4.59988,2470.25,2020-11-11T06:00:30Z
2020-11-11T04:02:37Z,42.805,6.029,13.2983,4.59988,2470.227,2020-11-11T06:03:33Z
2020-11-11T04:05:40Z,42.805,6.029,13.2988,4.59990,2470.25,2020-11-11T06:06:36Z
2020-11-11T04:08:43Z,42.805,6.029,13.2983,4.59988,2470.264,2020-11-11T06:09:39Z
2020-11-11T04:11:46Z,42.805,6.029,13.2987,4.59987,2470.227,2020-11-11T06:12:42Z
2020-11-11T04:14:49Z,42.805,6.029,13.2986,4.59987,2470.227,2020-11-11T06:15:45Z
2020-11-11T04:17:52Z,42.805,6.029,13.2984,4.59988,2470.25,2020-11-11T06:18:48Z
2020-11-11T04:20:55Z,42.805,6.029,13.2983,4.59988,2470.227,2020-11-11T06:21:51Z
2020-11-11T04:23:58Z,42.805,6.029,13.2983,4.59990,2470.25,2020-11-11T06:24:55Z
2020-11-11T04:27:02Z,42.805,6.029,13.2985,4.59988,2470.25,2020-11-11T06:27:58Z
2020-11-11T04:30:05Z,42.805,6.029,13.2983,4.59988,2470.227,2020-11-11T06:31:01Z
2020-11-11T04:33:08Z,42.805,6.029,13.2990,4.59988,2470.227,2020-11-11T06:34:04Z
2020-11-11T04:36:11Z,42.805,6.029,13.2986,4.59990,2470.203,2020-11-11T06:37:07Z
2020-11-11T04:39:14Z,42.805,6.029,13.2986,4.59988,2470.227,2020-11-11T06:40:10Z
2020-11-11T04:42:17Z,42.805,6.029,13.2984,4.59988,2470.227,2020-11-11T06:43:13Z
2020-11-11T04:45:20Z,42.805,6.029,13.2983,4.59989,2470.227,2020-11-11T06:46:16Z
2020-11-11T04:48:23Z,42.805,6.029,13.2982,4.59988,2470.25,2020-11-11T06:49:20Z
2020-11-11T04:51:27Z,42.805,6.029,13.2986,4.59990,2470.227,2020-11-11T06:52:23Z
2020-11-11T04:54:30Z,42.805,6.029,13.2985,4.59988,2470.203,2020-11-11T06:55:26Z
2020-11-11T04:57:33Z,42.805,6.029,13.2986,4.59988,2470.24,2020-11-11T06:58:29Z
2020-11-11T05:00:36Z,42.805,6.029,13.2986,4.59988,2470.227,2020-11-11T07:01:32Z
2020-11-11T05:03:39Z,42.805,6.029,13.2984,4.59988,2470.24,2020-11-11T07:04:35Z
2020-11-11T05:06:42Z,42.805,6.029,13.2986,4.59988,2470.25,2020-11-11T07:07:38Z
2020-11-11T05:09:45Z,42.805,6.029,13.2982,4.59991,2470.227,2020-11-11T07:10:41Z
2020-11-11T05:12:48Z,42.805,6.029,13.2984,4.59989,2470.227,2020-11-11T07:13:45Z
2020-11-11T05:15:52Z,42.805,6.029,13.2989,4.59991,2470.227,2020-11-11T07:16:48Z
2020-11-11T05:18:55Z,42.805,6.029,13.2983,4.59991,2470.203,2020-11-11T07:19:51Z
2020-11-11T05:21:58Z,42.805,6.029,13.2989,4.59994,2470.24,2020-11-11T07:22:54Z
2020-11-11T05:25:01Z,42.805,6.029,13.2989,4.59999,2470.264,2020-11-11T07:25:57Z
2020-11-11T05:28:04Z,42.805,6.029,13.2986,4.59994,2470.227,2020-11-11T07:29:00Z
2020-11-11T05:31:07Z,42.805,6.029,13.2986,4.59992,2470.24,2020-11-11T07:32:03Z
2020-11-11T05:34:10Z,42.805,6.029,13.2987,4.59995,2470.194,2020-11-11T07:35:06Z
2020-11-11T05:37:13Z,42.805,6.029,13.2989,4.59993,2470.227,2020-11-11T07:38:10Z
2020-11-11T05:40:16Z,42.805,6.029,13.2991,4.59993,2470.203,2020-11-11T07:41:13Z
2020-11-11T05:43:20Z,42.805,6.029,13.2990,4.59995,2470.203,2020-11-11T07:44:16Z
2020-11-11T05:46:23Z,42.805,6.029,13.2987,4.59993,2470.217,2020-11-11T07:47:19Z
2020-11-11T05:49:26Z,42.805,6.029,13.2988,4.59993,2470.25,2020-11-11T07:50:22Z
2020-11-11T05:52:29Z,42.805,6.029,13.2985,4.59996,2470.203,2020-11-11T07:53:25Z
2020-11-11T05:55:32Z,42.805,6.029,13.2986,4.59993,2470.227,2020-11-11T07:56:28Z
2020-11-11T05:58:35Z,42.805,6.029,13.2984,4.59995,2470.203,2020-11-11T07:59:31Z
2020-11-11T06:01:38Z,42.805,6.029,13.2986,4.59999,2470.194,2020-11-11T08:02:35Z
2020-11-11T06:04:42Z,42.805,6.029,13.2985,4.60003,2470.194,2020-11-11T08:05:38Z
2020-11-11T06:07:45Z,42.805,6.029,13.2985,4.59988,2470.18,2020-11-11T08:08:41Z
2020-11-11T06:10:48Z,42.805,6.029,13.2985,4.59988,2470.156,2020-11-11T08:11:44Z
2020-11-11T06:13:51Z,42.805,6.029,13.2986,4.59988,2470.227,2020-11-11T08:14:47Z
2020-11-11T06:16:54Z,42.805,6.029,13.2988,4.59991,2470.18,2020-11-11T08:17:50Z
2020-11-11T06:19:57Z,42.805,6.029,13.2986,4.59991,2470.203,2020-11-11T08:20:53Z
2020-11-11T06:23:00Z,42.805,6.029,13.2983,4.59999,2470.203,2020-11-11T08:23:56Z
2020-11-11T06:26:03Z,42.805,6.029,13.2990,4.59989,2470.18,2020-11-11T08:27:00Z
2020-11-11T06:29:06Z,42.805,6.029,13.2983,4.59989,2470.203,2020-11-11T08:30:03Z
2020-11-11T06:32:10Z,42.805,6.029,13.2984,4.59993,2470.18,2020-11-11T08:33:06Z
2020-11-11T06:35:13Z,42.805,6.029,13.2983,4.59989,2470.203,2020-11-11T08:36:09Z
2020-11-11T06:38:16Z,42.805,6.029,13.2982,4.59986,2470.217,2020-11-11T08:39:12Z
2020-11-11T06:41:19Z,42.805,6.029,13.2983,4.59987,2470.18,2020-11-11T08:42:15Z
2020-11-11T06:44:22Z,42.805,6.029,13.2984,4.59993,2470.203,2020-11-11T08:45:18Z
2020-11-11T06:47:25Z,42.805,6.029,13.2987,4.59991,2470.171,2020-11-11T08:48:21Z
2020-11-11T06:50:28Z,42.805,6.029,13.2985,4.59988,2470.194,2020-11-11T08:51:25Z
2020-11-11T06:53:31Z,42.805,6.029,13.2986,4.59988,2470.18,2020-11-11T08:54:28Z
2020-11-11T06:56:35Z,42.805,6.029,13.2987,4.59990,2470.194,2020-11-11T08:57:31Z
2020-11-11T06:59:38Z,42.805,6.029,13.2988,4.59991,2470.24,2020-11-11T09:00:34Z
2020-11-11T07:02:41Z,42.805,6.029,13.2987,4.59991,2470.18,2020-11-11T09:03:37Z
2020-11-11T07:05:44Z,42.805,6.029,13.2986,4.59991,2470.156,2020-11-11T09:06:40Z
2020-11-11T07:08:47Z,42.805,6.029,13.2990,4.59991,2470.194,2020-11-11T09:09:43Z
2020-11-11T07:11:50Z,42.805,6.029,13.2986,4.59991,2470.194,2020-11-11T09:12:46Z
2020-11-11T07:14:53Z,42.805,6.029,13.2987,4.59993,2470.156,2020-11-11T09:15:49Z
2020-11-11T07:17:56Z,42.805,6.029,13.2987,4.59994,2470.194,2020-11-11T09:18:53Z
2020-11-11T07:21:00Z,42.805,6.029,13.2990,4.59997,2470.18,2020-11-11T09:21:56Z
2020-11-11T07:24:03Z,42.805,6.029,13.2986,4.59996,2470.203,2020-11-11T09:24:59Z
2020-11-11T07:27:06Z,42.805,6.029,13.2988,4.59991,2470.133,2020-11-11T09:28:02Z
2020-11-11T07:30:09Z,42.805,6.029,13.2989,4.59993,2470.156,2020-11-11T09:31:05Z
2020-11-11T07:33:12Z,42.805,6.029,13.2990,4.59994,2470.156,2020-11-11T09:34:08Z
2020-11-11T07:36:15Z,42.805,6.029,13.2986,4.59991,2470.156,2020-11-11T09:37:11Z
2020-11-11T07:39:18Z,42.805,6.029,13.2989,4.59996,2470.147,2020-11-11T09:40:14Z
2020-11-11T07:42:21Z,42.805,6.029,13.2985,4.60006,2470.171,2020-11-11T09:43:18Z
2020-11-11T07:45:25Z,42.805,6.029,13.2986,4.59991,2470.156,2020-11-11T09:46:21Z
2020-11-11T07:48:28Z,42.805,6.029,13.2986,4.59992,2470.171,2020-11-11T09:49:24Z
2020-11-11T07:51:31Z,42.805,6.029,13.2986,4.59989,2470.194,2020-11-11T09:52:27Z
2020-11-11T07:54:34Z,42.805,6.029,13.2984,4.59989,2470.156,2020-11-11T09:55:30Z
2020-11-11T07:57:37Z,42.805,6.029,13.2993,4.59990,2470.18,2020-11-11T09:58:33Z
2020-11-11T08:00:40Z,42.805,6.029,13.2985,4.59993,2470.156,2020-11-11T10:01:36Z
2020-11-11T08:03:43Z,42.805,6.029,13.2986,4.59989,2470.156,2020-11-11T10:04:39Z
2020-11-11T08:06:46Z,42.805,6.029,13.2983,4.59988,2470.156,2020-11-11T10:07:43Z
2020-11-11T08:09:50Z,42.805,6.029,13.2982,4.59988,2470.171,2020-11-11T10:10:46Z
2020-11-11T08:12:53Z,42.805,6.029,13.2986,4.59990,2470.156,2020-11-11T10:13:49Z
2020-11-11T08:15:56Z,42.805,6.029,13.2987,4.59988,2470.156,2020-11-11T10:16:52Z
2020-11-11T08:18:59Z,42.805,6.029,13.2982,4.59987,2470.18,2020-11-11T10:19:55Z
2020-11-11T08:22:02Z,42.805,6.029,13.2983,4.59987,2470.171,2020-11-11T10:22:58Z
2020-11-11T08:25:05Z,42.805,6.029,13.2987,4.59987,2470.156,2020-11-11T10:26:01Z
2020-11-11T08:28:08Z,42.805,6.029,13.2987,4.59988,2470.133,2020-11-11T10:29:05Z
2020-11-11T08:31:11Z,42.805,6.029,13.2983,4.59988,2470.133,2020-11-11T10:32:08Z
2020-11-11T08:34:15Z,42.805,6.029,13.2985,4.59989,2470.156,2020-11-11T10:35:11Z
2020-11-11T08:37:18Z,42.805,6.029,13.2986,4.59990,2470.156,2020-11-11T10:38:14Z
2020-11-11T08:40:21Z,42.805,6.029,13.2983,4.59988,2470.18,2020-11-11T10:41:17Z
2020-11-11T08:43:24Z,42.805,6.029,13.2985,4.59988,2470.171,2020-11-11T10:44:20Z
2020-11-11T08:46:27Z,42.805,6.029,13.2984,4.59987,2470.147,2020-11-11T10:47:23Z
2020-11-11T08:49:30Z,42.805,6.029,13.2986,4.59988,2470.133,2020-11-11T10:50:26Z
2020-11-11T08:52:33Z,42.805,6.029,13.2989,4.59989,2470.133,2020-11-11T10:53:30Z
2020-11-11T08:55:36Z,42.805,6.029,13.2985,4.59991,2470.156,2020-11-11T10:56:33Z
2020-11-11T08:58:40Z,42.805,6.029,13.2989,4.59991,2470.133,2020-11-11T10:59:36Z
2020-11-11T09:01:43Z,42.805,6.029,13.2985,4.59990,2470.133,2020-11-11T11:02:39Z
2020-11-11T09:04:46Z,42.805,6.029,13.2986,4.59991,2470.147,2020-11-11T11:05:42Z
2020-11-11T09:07:49Z,42.805,6.029,13.2985,4.59991,2470.087,2020-11-11T11:08:45Z
2020-11-11T09:10:52Z,42.805,6.029,13.2985,4.59996,2470.11,2020-11-11T11:11:48Z
2020-11-11T09:13:55Z,42.805,6.029,13.2984,4.59993,2470.11,2020-11-11T11:14:51Z
2020-11-11T09:16:58Z,42.805,6.029,13.2990,4.60003,2470.133,2020-11-11T11:17:55Z
2020-11-11T09:20:01Z,42.805,6.029,13.2986,4.59991,2470.147,2020-11-11T11:20:58Z
2020-11-11T09:23:05Z,42.805,6.029,13.2989,4.59996,2470.124,2020-11-11T11:24:01Z
2020-11-11T09:26:08Z,42.805,6.029,13.2986,4.59994,2470.156,2020-11-11T11:27:04Z
2020-11-11T09:29:11Z,42.805,6.029,13.2993,4.59994,2470.11,2020-11-11T11:30:07Z
2020-11-11T09:32:14Z,42.805,6.029,13.2991,4.59992,2470.133,2020-11-11T11:33:10Z
2020-11-11T09:35:17Z,42.805,6.029,13.2986,4.59994,2470.133,2020-11-11T11:36:13Z
2020-11-11T09:38:20Z,42.805,6.029,13.2984,4.59996,2470.124,2020-11-11T11:39:16Z
2020-11-11T09:41:23Z,42.805,6.029,13.2990,4.59994,2470.133,2020-11-11T11:42:20Z
2020-11-11T09:44:27Z,42.805,6.029,13.2990,4.59992,2470.11,2020-11-11T11:45:23Z
2020-11-11T09:47:30Z,42.805,6.029,13.2991,4.59993,2470.133,2020-11-11T11:48:26Z
2020-11-11T09:50:33Z,42.805,6.029,13.2987,4.59994,2470.18,2020-11-11T11:51:29Z
2020-11-11T09:53:36Z,42.805,6.029,13.2990,4.59994,2470.11,2020-11-11T11:54:32Z
2020-11-11T09:56:39Z,42.805,6.029,13.2991,4.59993,2470.147,2020-11-11T11:57:35Z
2020-11-11T09:59:42Z,42.805,6.029,13.2988,4.59994,2470.124,2020-11-11T12:00:38Z
2020-11-11T10:02:45Z,42.805,6.029,13.2989,4.59994,2470.156,2020-11-11T12:03:41Z
2020-11-11T10:05:48Z,42.805,6.029,13.2991,4.59994,2470.133,2020-11-11T12:06:45Z
2020-11-11T10:08:52Z,42.805,6.029,13.2990,4.59995,2470.133,2020-11-11T12:09:48Z
2020-11-11T10:11:55Z,42.805,6.029,13.2989,4.59997,2470.156,2020-11-11T12:12:51Z
2020-11-11T10:14:58Z,42.805,6.029,13.2986,4.59996,2470.133,2020-11-11T12:15:54Z
2020-11-11T10:18:01Z,42.805,6.029,13.2988,4.59993,2470.11,2020-11-11T12:18:57Z
2020-11-11T10:21:04Z,42.805,6.029,13.2986,4.60006,2470.133,2020-11-11T12:22:00Z
2020-11-11T10:24:07Z,42.805,6.029,13.2991,4.59993,2470.11,2020-11-11T12:25:03Z
2020-11-11T10:27:10Z,42.805,6.029,13.2989,4.59995,2470.11,2020-11-11T12:28:06Z
2020-11-11T10:30:13Z,42.805,6.029,13.2983,4.59991,2470.147,2020-11-11T12:31:10Z
2020-11-11T10:33:17Z,42.805,6.029,13.2986,4.59992,2470.124,2020-11-11T12:34:13Z
2020-11-11T10:36:20Z,42.805,6.029,13.2990,4.59991,2470.133,2020-11-11T12:37:16Z
2020-11-11T10:39:23Z,42.805,6.029,13.2989,4.59994,2470.11,2020-11-11T12:40:19Z
2020-11-11T10:42:26Z,42.805,6.029,13.2991,4.59994,2470.133,2020-11-11T12:43:22Z
2020-11-11T10:45:29Z,42.805,6.029,13.2990,4.59992,2470.147,2020-11-11T12:46:25Z
2020-11-11T10:48:32Z,42.805,6.029,13.2989,4.59993,2470.133,2020-11-11T12:49:28Z
2020-11-11T10:51:35Z,42.805,6.029,13.2990,4.59995,2470.1,2020-11-11T12:52:31Z
2020-11-11T10:54:38Z,42.805,6.029,13.2991,4.59992,2470.156,2020-11-11T12:55:35Z
2020-11-11T10:57:42Z,42.805,6.029,13.2990,4.59994,2470.133,2020-11-11T12:58:38Z
2020-11-11T11:00:45Z,42.805,6.029,13.2991,4.59994,2470.133,2020-11-11T13:01:41Z
2020-11-11T11:03:48Z,42.805,6.029,13.2989,4.59998,2470.147,2020-11-11T13:04:44Z
2020-11-11T11:06:51Z,42.805,6.029,13.2986,4.59996,2470.133,2020-11-11T13:07:47Z
2020-11-11T11:09:54Z,42.805,6.029,13.2990,4.59995,2470.133,2020-11-11T13:10:50Z
2020-11-11T11:12:57Z,42.805,6.029,13.2989,4.59993,2470.133,2020-11-11T13:13:53Z
2020-11-11T11:16:00Z,42.805,6.029,13.2990,4.59998,2470.133,2020-11-11T13:16:57Z
2020-11-11T11:19:03Z,42.805,6.029,13.2987,4.59996,2470.143,2020-11-11T13:20:00Z
2020-11-11T11:22:07Z,42.805,6.029,13.2986,4.59996,2470.133,2020-11-11T13:23:03Z
2020-11-11T11:25:10Z,42.805,6.029,13.2992,4.59993,2470.171,2020-11-11T13:26:06Z
2020-11-11T11:28:13Z,42.805,6.029,13.2990,4.59996,2470.147,2020-11-11T13:29:09Z
2020-11-11T11:31:16Z,42.805,6.029,13.2986,4.59995,2470.133,2020-11-11T13:32:12Z
2020-11-11T11:34:19Z,42.805,6.029,13.2988,4.59993,2470.133,2020-11-11T13:35:15Z
2020-11-11T11:37:22Z,42.805,6.029,13.2989,4.59992,2470.171,2020-11-11T13:38:18Z
2020-11-11T11:40:25Z,42.805,6.029,13.2988,4.59996,2470.147,2020-11-11T13:41:22Z
2020-11-11T11:43:28Z,42.805,6.029,13.2987,4.59994,2470.133,2020-11-11T13:44:25Z
2020-11-11T11:46:32Z,42.805,6.029,13.2991,4.59993,2470.147,2020-11-11T13:47:28Z
2020-11-11T11:49:35Z,42.805,6.029,13.2988,4.59994,2470.18,2020-11-11T13:50:31Z
2020-11-11T11:52:38Z,42.805,6.029,13.2987,4.59996,2470.18,2020-11-11T13:53:34Z
2020-11-11T11:55:41Z,42.805,6.029,13.2991,4.59994,2470.147,2020-11-11T13:56:37Z
2020-11-11T11:58:44Z,42.805,6.029,13.2987,4.59996,2470.147,2020-11-11T13:59:40Z
2020-11-11T12:01:47Z,42.805,6.029,13.2990,4.59993,2470.147,2020-11-11T14:02:43Z
2020-11-11T12:04:50Z,42.805,6.029,13.2986,4.59995,2470.171,2020-11-11T14:05:47Z
2020-11-11T12:07:54Z,42.805,6.029,13.2986,4.59994,2470.171,2020-11-11T14:08:50Z
2020-11-11T12:10:57Z,42.805,6.029,13.2986,4.59998,2470.203,2020-11-11T14:11:53Z
2020-11-11T12:14:00Z,42.805,6.029,13.2986,4.59999,2470.171,2020-11-11T14:14:56Z
2020-11-11T12:17:03Z,42.805,6.029,13.2985,4.59996,2470.156,2020-11-11T14:17:59Z
2020-11-11T12:20:06Z,42.805,6.029,13.2990,4.59998,2470.18,2020-11-11T14:21:02Z
2020-11-11T12:23:09Z,42.805,6.029,13.2985,4.60002,2470.203,2020-11-11T14:24:05Z
2020-11-11T12:26:12Z,42.805,6.029,13.2986,4.59996,2470.18,2020-11-11T14:27:08Z
2020-11-11T12:29:15Z,42.805,6.029,13.2990,4.60000,2470.203,2020-11-11T14:30:12Z
2020-11-11T12:32:19Z,42.805,6.029,13.2986,4.60001,2470.194,2020-11-11T14:33:15Z
2020-11-11T12:35:22Z,42.805,6.029,13.2987,4.60001,2470.18,2020-11-11T14:36:18Z
2020-11-11T12:38:25Z,42.805,6.029,13.2988,4.60007,2470.18,2020-11-11T14:39:21Z
2020-11-11T12:41:28Z,42.805,6.029,13.2990,4.59997,2470.156,2020-11-11T14:42:24Z
2020-11-11T12:44:31Z,42.805,6.029,13.2990,4.60003,2470.18,2020-11-11T14:45:27Z
2020-11-11T12:47:34Z,42.805,6.029,13.3019,4.60024,2470.18,2020-11-11T14:48:30Z
2020-11-11T12:50:37Z,42.805,6.029,13.3014,4.60058,2470.18,2020-11-11T14:51:34Z
2020-11-11T12:53:40Z,42.805,6.029,13.3010,4.60084,2470.194,2020-11-11T14:54:37Z
2020-11-11T12:56:44Z,42.805,6.029,13.3012,4.60067,2470.18,2020-11-11T14:57:40Z
2020-11-11T12:59:47Z,42.805,6.029,13.3006,4.60052,2470.194,2020-11-11T15:00:43Z
2020-11-11T13:02:50Z,42.805,6.029,13.3018,4.60058,2470.203,2020-11-11T15:03:46Z
2020-11-11T13:05:53Z,42.805,6.029,13.3003,4.60087,2470.227,2020-11-11T15:06:49Z
2020-11-11T13:08:56Z,42.805,6.029,13.3015,4.60057,2470.203,2020-11-11T15:09:52Z
2020-11-11T13:11:59Z,42.805,6.029,13.3011,4.60057,2470.203,2020-11-11T15:12:55Z
2020-11-11T13:15:02Z,42.805,6.029,13.3003,4.60056,2470.217,2020-11-11T15:15:59Z
2020-11-11T13:18:05Z,42.805,6.029,13.2998,4.60067,2470.203,2020-11-11T15:19:02Z
2020-11-11T13:21:09Z,42.805,6.029,13.3012,4.60065,2470.18,2020-11-11T15:22:05Z
2020-11-11T13:24:12Z,42.805,6.029,13.3011,4.60054,2470.171,2020-11-11T15:25:08Z
2020-11-11T13:27:15Z,42.805,6.029,13.3002,4.60086,2470.227,2020-11-11T15:28:11Z
2020-11-11T13:30:18Z,42.805,6.029,13.3013,4.60082,2470.227,2020-11-11T15:31:14Z
2020-11-11T13:33:21Z,42.805,6.029,13.2993,4.60084,2470.217,2020-11-11T15:34:17Z
2020-11-11T13:36:24Z,42.805,6.029,13.2995,4.60072,2470.203,2020-11-11T15:37:20Z
2020-11-11T13:39:27Z,42.805,6.029,13.3010,4.60057,2470.203,2020-11-11T15:40:24Z
2020-11-11T13:42:30Z,42.805,6.029,13.3006,4.60074,2470.213,2020-11-11T15:43:27Z
2020-11-11T13:45:34Z,42.805,6.029,13.2998,4.60074,2470.227,2020-11-11T15:46:30Z
2020-11-11T13:48:37Z,42.805,6.029,13.3005,4.60077,2470.227,2020-11-11T15:49:33Z
2020-11-11T13:51:40Z,42.805,6.029,13.3002,4.60056,2470.264,2020-11-11T15:52:36Z
2020-11-11T13:54:43Z,42.805,6.029,13.3000,4.60041,2470.203,2020-11-11T15:55:39Z
2020-11-11T13:57:46Z,42.805,6.029,13.3002,4.60060,2470.217,2020-11-11T15:58:42Z
2020-11-11T14:00:49Z,42.805,6.029,13.2998,4.60046,2470.24,2020-11-11T16:01:45Z
2020-11-11T14:03:52Z,42.805,6.029,13.2992,4.60077,2470.24,2020-11-11T16:04:49Z
2020-11-11T14:06:55Z,42.805,6.029,13.2997,4.60052,2470.264,2020-11-11T16:07:52Z
2020-11-11T14:09:59Z,42.805,6.029,13.3004,4.60047,2470.264,2020-11-11T16:10:55Z
2020-11-11T14:13:02Z,42.805,6.029,13.3013,4.60049,2470.25,2020-11-11T16:13:58Z
2020-11-11T14:16:05Z,42.805,6.029,13.2994,4.60022,2470.25,2020-11-11T16:17:01Z
2020-11-11T14:19:08Z,42.805,6.029,13.2996,4.60041,2470.273,2020-11-11T16:20:04Z
2020-11-11T14:22:11Z,42.805,6.029,13.3020,4.60029,2470.25,2020-11-11T16:23:07Z
2020-11-11T14:25:14Z,42.805,6.029,13.2991,4.60052,2470.227,2020-11-11T16:26:10Z
2020-11-11T14:28:17Z,42.805,6.029,13.3004,4.60062,2470.273,2020-11-11T16:29:14Z
2020-11-11T14:31:20Z,42.805,6.029,13.3000,4.60038,2470.25,2020-11-11T16:32:17Z
2020-11-11T14:34:24Z,42.805,6.029,13.2993,4.60006,2470.227,2020-11-11T16:35:20Z
2020-11-11T14:37:27Z,42.805,6.029,13.2994,4.60038,2470.24,2020-11-11T16:38:23Z
2020-11-11T14:40:30Z,42.805,6.029,13.3002,4.60045,2470.264,2020-11-11T16:41:26Z
2020-11-11T14:43:33Z,42.805,6.029,13.2985,4.60022,2470.25,2020-11-11T16:44:29Z
2020-11-11T14:46:36Z,42.805,6.029,13.2990,4.60057,2470.31,2020-11-11T16:47:32Z
2020-11-11T14:49:39Z,42.805,6.029,13.2991,4.60050,2470.287,2020-11-11T16:50:35Z
2020-11-11T14:52:42Z,42.805,6.029,13.2994,4.60050,2470.264,2020-11-11T16:53:39Z
2020-11-11T14:55:46Z,42.805,6.029,13.2995,4.60022,2470.297,2020-11-11T16:56:42Z
2020-11-11T14:58:49Z,42.805,6.029,13.2995,4.60068,2470.26,2020-11-11T16:59:45Z
2020-11-11T15:01:52Z,42.805,6.029,13.2993,4.60027,2470.227,2020-11-11T17:02:48Z